KAR775 UWKD-USRR

Flight info

Callsign KAR775
Flight time 2h 11m
Altitude 39000
Route RIMIP1G RIMIP L94 GEMKI T765 INGEN W63 IDKOM N604 HMN L870 STELA KOVER1T
Aircraft E190/M-SDE3GILORVW/S

Departure

Time 2026-04-23 09:55
Airport Kazan International Airport (UWKD)

Arrival

Time 2026-04-23 12:06
Airport Surgut International Airport (USRR)
Time Latitude Longitude Altitude Speed Heading
2026-04-23 09:32 55.60709 49.29596 414 ft 0 kts 35°
2026-04-23 09:44 55.60713 49.29600 414 ft 2 kts 35°
2026-04-23 09:45 55.60729 49.29618 414 ft 5 kts 28°
2026-04-23 09:45 55.60770 49.29589 408 ft 9 kts 306°
2026-04-23 09:45 55.60811 49.29483 412 ft 10 kts 299°
2026-04-23 09:45 55.60781 49.29385 410 ft 13 kts 214°
2026-04-23 09:46 55.60704 49.29294 414 ft 14 kts 215°
2026-04-23 09:46 55.60620 49.29191 414 ft 15 kts 218°
2026-04-23 09:46 55.60576 49.29026 414 ft 16 kts 272°
2026-04-23 09:46 55.60584 49.28823 414 ft 17 kts 274°
2026-04-23 09:47 55.60595 49.28622 414 ft 17 kts 286°
2026-04-23 09:47 55.60657 49.28445 413 ft 17 kts 304°
2026-04-23 09:47 55.60726 49.28269 414 ft 17 kts 303°
2026-04-23 09:47 55.60795 49.28090 412 ft 18 kts 305°
2026-04-23 09:48 55.60864 49.27911 412 ft 18 kts 304°
2026-04-23 09:48 55.60935 49.27728 414 ft 18 kts 303°
2026-04-23 09:48 55.61007 49.27543 411 ft 18 kts 304°
2026-04-23 09:48 55.61079 49.27355 411 ft 19 kts 303°
2026-04-23 09:49 55.61150 49.27176 412 ft 18 kts 305°
2026-04-23 09:49 55.61221 49.26993 414 ft 18 kts 305°
2026-04-23 09:49 55.61292 49.26808 414 ft 18 kts 303°
2026-04-23 09:49 55.61364 49.26624 414 ft 18 kts 303°
2026-04-23 09:50 55.61437 49.26435 409 ft 19 kts 304°
2026-04-23 09:50 55.61511 49.26244 410 ft 19 kts 305°
2026-04-23 09:50 55.61587 49.26049 412 ft 19 kts 304°
2026-04-23 09:50 55.61662 49.25852 412 ft 19 kts 304°
2026-04-23 09:51 55.61739 49.25657 414 ft 20 kts 304°
2026-04-23 09:51 55.61804 49.25490 412 ft 13 kts 305°
2026-04-23 09:51 55.61851 49.25358 413 ft 11 kts 289°
2026-04-23 09:51 55.61823 49.25256 407 ft 7 kts 216°
2026-04-23 09:52 55.61817 49.25248 413 ft 0 kts 216°
2026-04-23 09:52 55.61790 49.25215 409 ft 12 kts 213°
2026-04-23 09:52 55.61701 49.25145 405 ft 14 kts 175°
2026-04-23 09:53 55.61658 49.25210 410 ft 0 kts 124°
2026-04-23 09:54 55.61645 49.25242 408 ft 20 kts 124°
2026-04-23 09:54 55.61445 49.25759 411 ft 82 kts 124°
2026-04-23 09:54 55.61009 49.26872 407 ft 137 kts 124°
2026-04-23 09:54 55.60397 49.28469 490 ft 174 kts 125°
2026-04-23 09:55 55.59746 49.30213 1284 ft 167 kts 126°
2026-04-23 09:55 55.59068 49.31960 1950 ft 181 kts 125°
2026-04-23 09:55 55.58281 49.33992 2456 ft 215 kts 127°
2026-04-23 09:55 55.57409 49.36231 3391 ft 228 kts 126°
2026-04-23 09:56 55.56487 49.38606 4300 ft 237 kts 127°
2026-04-23 09:56 55.55506 49.41018 5344 ft 245 kts 126°
2026-04-23 09:56 55.54741 49.43868 5970 ft 278 kts 100°
2026-04-23 09:56 55.54946 49.47283 7082 ft 283 kts 66°
2026-04-23 09:57 55.55990 49.50231 8340 ft 284 kts 52°
2026-04-23 09:57 55.56857 49.53369 9447 ft 289 kts 78°
2026-04-23 09:57 55.57232 49.56860 10529 ft 291 kts 80°
2026-04-23 09:57 55.57624 49.60420 11434 ft 301 kts 79°
2026-04-23 09:58 55.58053 49.64146 12061 ft 318 kts 79°
2026-04-23 09:58 55.58510 49.68085 12771 ft 332 kts 79°
2026-04-23 09:58 55.58968 49.72064 13661 ft 337 kts 79°
2026-04-23 09:58 55.59438 49.76166 14571 ft 342 kts 79°
2026-04-23 09:59 55.59908 49.80306 15437 ft 346 kts 79°
2026-04-23 09:59 55.60387 49.84508 16265 ft 351 kts 79°
2026-04-23 09:59 55.60872 49.88774 17094 ft 355 kts 79°
2026-04-23 09:59 55.61364 49.93086 17848 ft 359 kts 79°
2026-04-23 10:00 55.61864 49.97444 18601 ft 363 kts 79°
2026-04-23 10:00 55.62363 50.01843 19308 ft 368 kts 79°
2026-04-23 10:00 55.62870 50.06315 20003 ft 372 kts 78°
2026-04-23 10:00 55.63634 50.10726 20645 ft 377 kts 70°
2026-04-23 10:01 55.64672 50.15007 21280 ft 381 kts 66°
2026-04-23 10:01 55.65785 50.19279 21899 ft 384 kts 66°
2026-04-23 10:01 55.66874 50.23565 22497 ft 387 kts 67°
2026-04-23 10:01 55.67953 50.27959 23060 ft 391 kts 67°
2026-04-23 10:02 55.69026 50.32405 23606 ft 394 kts 68°
2026-04-23 10:02 55.70101 50.36892 24148 ft 397 kts 68°
2026-04-23 10:02 55.71185 50.41427 24669 ft 401 kts 68°
2026-04-23 10:02 55.72282 50.46012 25187 ft 403 kts 67°
2026-04-23 10:03 55.73383 50.50614 25656 ft 406 kts 67°
2026-04-23 10:03 55.74491 50.55255 26152 ft 408 kts 67°
2026-04-23 10:03 55.75587 50.59856 26592 ft 411 kts 67°
2026-04-23 10:03 55.76713 50.64584 27012 ft 414 kts 67°
2026-04-23 10:04 55.77838 50.69332 27429 ft 417 kts 67°
2026-04-23 10:04 55.78968 50.74107 27836 ft 420 kts 67°
2026-04-23 10:04 55.80091 50.78860 28221 ft 422 kts 67°
2026-04-23 10:04 55.81233 50.83712 28625 ft 424 kts 67°
2026-04-23 10:05 55.82361 50.88518 28936 ft 428 kts 67°
2026-04-23 10:05 55.83520 50.93447 29322 ft 429 kts 67°
2026-04-23 10:05 55.84662 50.98314 29667 ft 431 kts 67°
2026-04-23 10:05 55.85826 51.03294 29967 ft 434 kts 67°
2026-04-23 10:06 55.86993 51.08297 30280 ft 437 kts 67°
2026-04-23 10:06 55.88150 51.13264 30544 ft 440 kts 67°
2026-04-23 10:06 55.89327 51.18333 30802 ft 443 kts 67°
2026-04-23 10:06 55.90507 51.23435 31069 ft 446 kts 68°
2026-04-23 10:07 55.91679 51.28509 31282 ft 449 kts 68°
2026-04-23 10:07 55.92878 51.33702 31537 ft 451 kts 68°
2026-04-23 10:07 55.94075 51.38889 31770 ft 454 kts 68°
2026-04-23 10:07 55.95274 51.44112 32090 ft 454 kts 68°
2026-04-23 10:08 55.96457 51.49283 32395 ft 454 kts 68°
2026-04-23 10:08 55.97654 51.54517 32661 ft 455 kts 68°
2026-04-23 10:08 55.98854 51.59775 32919 ft 456 kts 68°
2026-04-23 10:09 56.01253 51.70314 33443 ft 457 kts 69°
2026-04-23 10:09 56.02431 51.75530 33678 ft 458 kts 69°
2026-04-23 10:09 56.03650 51.80822 33898 ft 459 kts 65°
2026-04-23 10:09 56.05346 51.85678 34056 ft 461 kts 52°
2026-04-23 10:10 56.07374 51.90091 34332 ft 460 kts 49°
2026-04-23 10:10 56.09478 51.94456 34572 ft 460 kts 49°
2026-04-23 10:10 56.11565 51.98827 34781 ft 461 kts 50°
2026-04-23 10:10 56.13620 52.03179 35016 ft 461 kts 50°
2026-04-23 10:11 56.15695 52.07602 35153 ft 462 kts 50°
2026-04-23 10:11 56.17749 52.12003 35336 ft 463 kts 50°
2026-04-23 10:11 56.19818 52.16446 35542 ft 463 kts 50°
2026-04-23 10:11 56.21895 52.20912 35743 ft 463 kts 50°
2026-04-23 10:12 56.23958 52.25355 35939 ft 462 kts 50°
2026-04-23 10:12 56.25996 52.29747 36113 ft 463 kts 50°
2026-04-23 10:12 56.28060 52.34213 36298 ft 463 kts 50°
2026-04-23 10:12 56.30121 52.38708 36448 ft 463 kts 50°
2026-04-23 10:13 56.32150 52.43148 36609 ft 464 kts 51°
2026-04-23 10:13 56.34192 52.47628 36916 ft 459 kts 51°
2026-04-23 10:13 56.36221 52.52086 37289 ft 454 kts 51°
2026-04-23 10:13 56.38210 52.56455 37392 ft 456 kts 51°
2026-04-23 10:14 56.42263 52.65386 37566 ft 459 kts 51°
2026-04-23 10:14 56.44271 52.69822 37701 ft 459 kts 51°
2026-04-23 10:14 56.46402 52.74161 37813 ft 459 kts 46°
2026-04-23 10:15 56.48593 52.78294 37930 ft 459 kts 46°
2026-04-23 10:15 56.50834 52.82483 38042 ft 459 kts 46°
2026-04-23 10:15 56.53029 52.86601 38156 ft 459 kts 46°
2026-04-23 10:15 56.55258 52.90799 38263 ft 460 kts 46°
2026-04-23 10:16 56.57474 52.94990 38373 ft 460 kts 46°
2026-04-23 10:16 56.59689 52.99190 38527 ft 457 kts 46°
2026-04-23 10:16 56.61864 53.03331 38751 ft 455 kts 46°
2026-04-23 10:16 56.64060 53.07511 38724 ft 458 kts 46°
2026-04-23 10:17 56.66253 53.11724 38607 ft 465 kts 47°
2026-04-23 10:17 56.68472 53.16083 38571 ft 468 kts 47°
2026-04-23 10:17 56.72894 53.24803 38572 ft 474 kts 47°
2026-04-23 10:18 56.77383 53.33666 38576 ft 479 kts 47°
2026-04-23 10:18 56.81949 53.42695 38561 ft 484 kts 47°
2026-04-23 10:19 56.86379 53.52003 38586 ft 489 kts 52°
2026-04-23 10:19 56.90583 53.61839 38564 ft 495 kts 52°
2026-04-23 10:20 56.94872 53.71722 38574 ft 499 kts 51°
2026-04-23 10:20 56.99213 53.81700 38570 ft 504 kts 51°
2026-04-23 10:21 57.03606 53.91840 38567 ft 509 kts 52°
2026-04-23 10:21 57.05827 53.96977 38081 ft 520 kts 52°
2026-04-23 10:21 57.08094 54.02176 38034 ft 516 kts 51°
2026-04-23 10:22 57.12610 54.12405 38066 ft 517 kts 51°
2026-04-23 10:22 57.17123 54.22706 38078 ft 517 kts 51°
2026-04-23 10:23 57.21643 54.33098 38085 ft 518 kts 52°
2026-04-23 10:23 57.26112 54.43533 38100 ft 517 kts 52°
2026-04-23 10:24 57.30549 54.53939 38099 ft 518 kts 52°
2026-04-23 10:24 57.34990 54.64399 38110 ft 518 kts 52°
2026-04-23 10:25 57.39446 54.74918 38129 ft 518 kts 52°
2026-04-23 10:25 57.43870 54.85410 38153 ft 518 kts 52°
2026-04-23 10:26 57.48311 54.95995 38166 ft 518 kts 52°
2026-04-23 10:26 57.52711 55.06528 38170 ft 518 kts 52°
2026-04-23 10:27 57.57143 55.17187 38169 ft 518 kts 52°
2026-04-23 10:27 57.61535 55.27787 38186 ft 518 kts 52°
2026-04-23 10:28 57.65921 55.38424 38197 ft 518 kts 52°
2026-04-23 10:28 57.69588 55.47356 38198 ft 518 kts 53°
2026-04-23 10:29 57.74702 55.59861 38208 ft 519 kts 53°
2026-04-23 10:29 57.78352 55.68830 38210 ft 519 kts 53°
2026-04-23 10:30 57.82715 55.79592 38208 ft 519 kts 53°
2026-04-23 10:30 57.87084 55.90422 38221 ft 519 kts 53°
2026-04-23 10:31 57.91422 56.01223 38223 ft 517 kts 54°
2026-04-23 10:31 57.93425 56.06789 37966 ft 506 kts 58°
2026-04-23 10:31 57.95256 56.12323 37934 ft 487 kts 59°
2026-04-23 10:32 57.96973 56.17589 37887 ft 469 kts 59°
2026-04-23 10:32 57.98671 56.22767 37833 ft 462 kts 59°
2026-04-23 10:32 58.02068 56.33118 37818 ft 467 kts 59°
2026-04-23 10:33 58.05519 56.43646 37852 ft 472 kts 59°
2026-04-23 10:33 58.08970 56.54222 37890 ft 476 kts 59°
2026-04-23 10:34 58.12437 56.64897 37903 ft 480 kts 59°
2026-04-23 10:34 58.15938 56.75724 38029 ft 478 kts 59°
2026-04-23 10:35 58.17667 56.81084 38344 ft 473 kts 59°
2026-04-23 10:35 58.19349 56.86308 38644 ft 467 kts 59°
2026-04-23 10:35 58.22755 56.96936 38587 ft 472 kts 59°
2026-04-23 10:36 58.26146 57.07555 38594 ft 474 kts 59°
2026-04-23 10:36 58.29565 57.18327 38613 ft 477 kts 59°
2026-04-23 10:37 58.32986 57.29152 38630 ft 479 kts 60°
2026-04-23 10:37 58.36436 57.40040 38641 ft 482 kts 59°
2026-04-23 10:38 58.39906 57.51036 38583 ft 485 kts 60°
2026-04-23 10:38 58.43397 57.62131 38579 ft 487 kts 60°
2026-04-23 10:39 58.46853 57.73181 38584 ft 487 kts 60°
2026-04-23 10:39 58.50331 57.84344 38579 ft 487 kts 60°
2026-04-23 10:40 58.53771 57.95442 38579 ft 486 kts 60°
2026-04-23 10:40 58.57220 58.06621 38588 ft 486 kts 60°
2026-04-23 10:41 58.60639 58.17768 38593 ft 487 kts 60°
2026-04-23 10:41 58.64057 58.28959 38593 ft 487 kts 60°
2026-04-23 10:42 58.67468 58.40193 38590 ft 487 kts 60°
2026-04-23 10:42 58.70875 58.51439 38593 ft 487 kts 60°
2026-04-23 10:43 58.74274 58.62720 38589 ft 487 kts 60°
2026-04-23 10:43 58.77682 58.74086 38590 ft 487 kts 60°
2026-04-23 10:44 58.81045 58.85362 38591 ft 487 kts 60°
2026-04-23 10:44 58.84412 58.96709 38591 ft 487 kts 61°
2026-04-23 10:45 58.87758 59.08035 38594 ft 487 kts 61°
2026-04-23 10:45 58.91111 59.19447 38591 ft 487 kts 61°
2026-04-23 10:46 58.94441 59.30809 38591 ft 487 kts 61°
2026-04-23 10:46 58.97770 59.42250 38589 ft 487 kts 61°
2026-04-23 10:47 59.01090 59.53719 38587 ft 487 kts 61°
2026-04-23 10:47 59.04392 59.65170 38601 ft 487 kts 61°
2026-04-23 10:48 59.07693 59.76671 38606 ft 487 kts 62°
2026-04-23 10:48 59.10969 59.88152 38602 ft 487 kts 61°
2026-04-23 10:49 59.14248 59.99706 38604 ft 487 kts 62°
2026-04-23 10:49 59.17520 60.11266 38599 ft 487 kts 62°
2026-04-23 10:50 59.20765 60.22803 38601 ft 487 kts 62°
2026-04-23 10:50 59.24036 60.34456 38599 ft 487 kts 62°
2026-04-23 10:51 59.27257 60.46034 38603 ft 487 kts 62°
2026-04-23 10:51 59.30475 60.57637 38604 ft 487 kts 62°
2026-04-23 10:52 59.33710 60.69324 38599 ft 487 kts 62°
2026-04-23 10:52 59.36914 60.80997 38600 ft 487 kts 62°
2026-04-23 10:53 59.40119 60.92685 38627 ft 487 kts 62°
2026-04-23 10:53 59.43316 61.04451 38618 ft 487 kts 63°
2026-04-23 10:54 59.46481 61.16165 38620 ft 487 kts 63°
2026-04-23 10:54 59.49642 61.27925 38619 ft 485 kts 63°
2026-04-23 10:55 59.52794 61.39684 38635 ft 486 kts 63°
2026-04-23 10:55 59.55936 61.51484 38626 ft 486 kts 63°
2026-04-23 10:56 59.59067 61.63279 38649 ft 486 kts 63°
2026-04-23 10:56 59.62192 61.75109 38646 ft 485 kts 63°
2026-04-23 10:57 59.65272 61.86878 38642 ft 484 kts 63°
2026-04-23 10:57 59.68371 61.98762 38649 ft 485 kts 63°
2026-04-23 10:58 59.71464 62.10659 38644 ft 484 kts 64°
2026-04-23 10:58 59.74506 62.22503 38651 ft 485 kts 64°
2026-04-23 10:59 59.77571 62.34393 38659 ft 485 kts 64°
2026-04-23 10:59 59.80628 62.46375 38656 ft 485 kts 64°
2026-04-23 11:00 59.83649 62.58290 38658 ft 486 kts 64°
2026-04-23 11:00 59.86692 62.70286 38659 ft 485 kts 64°
2026-04-23 11:01 59.89720 62.82297 38657 ft 485 kts 64°
2026-04-23 11:01 59.92732 62.94366 38658 ft 486 kts 64°
2026-04-23 11:02 59.94940 63.06916 38696 ft 481 kts 83°
2026-04-23 11:02 59.95767 63.20155 38636 ft 481 kts 84°
2026-04-23 11:03 59.96706 63.33406 38657 ft 482 kts 83°
2026-04-23 11:03 59.97712 63.46662 38657 ft 483 kts 83°
2026-04-23 11:04 59.98710 63.59915 38653 ft 483 kts 83°
2026-04-23 11:04 59.99695 63.73202 38659 ft 483 kts 84°
2026-04-23 11:05 60.00665 63.86436 38648 ft 482 kts 84°
2026-04-23 11:05 60.01778 63.99654 38686 ft 483 kts 79°
2026-04-23 11:06 60.04175 64.19177 38666 ft 484 kts 78°
2026-04-23 11:07 60.05754 64.32307 38668 ft 484 kts 78°
2026-04-23 11:07 60.07318 64.45456 38663 ft 484 kts 78°
2026-04-23 11:08 60.08863 64.58514 38665 ft 484 kts 78°
2026-04-23 11:08 60.10401 64.71670 38665 ft 485 kts 78°
2026-04-23 11:09 60.12086 64.84746 38667 ft 486 kts 69°
2026-04-23 11:09 60.14914 64.97075 38650 ft 488 kts 65°
2026-04-23 11:10 60.17862 65.09351 38662 ft 488 kts 65°
2026-04-23 11:10 60.20742 65.21644 38666 ft 489 kts 66°
2026-04-23 11:11 60.23627 65.34071 38664 ft 489 kts 66°
2026-04-23 11:11 60.26485 65.46474 38669 ft 490 kts 66°
2026-04-23 11:12 60.29332 65.58900 38675 ft 490 kts 66°
2026-04-23 11:12 60.32191 65.71437 38674 ft 490 kts 66°
2026-04-23 11:13 60.35014 65.83897 38675 ft 490 kts 66°
2026-04-23 11:13 60.37846 65.96478 38672 ft 490 kts 66°
2026-04-23 11:14 60.40641 66.08951 38675 ft 490 kts 66°
2026-04-23 11:14 60.43449 66.21566 38679 ft 491 kts 67°
2026-04-23 11:15 60.46227 66.34135 38675 ft 491 kts 67°
2026-04-23 11:15 60.49011 66.46787 38677 ft 491 kts 67°
2026-04-23 11:16 60.51782 66.59438 38675 ft 491 kts 67°
2026-04-23 11:16 60.54546 66.72158 38676 ft 491 kts 67°
2026-04-23 11:17 60.57301 66.84903 38675 ft 491 kts 67°
2026-04-23 11:17 60.60047 66.97649 38675 ft 492 kts 67°
2026-04-23 11:18 60.62770 67.10360 38667 ft 492 kts 67°
2026-04-23 11:18 60.65496 67.23167 38665 ft 492 kts 68°
2026-04-23 11:19 60.68200 67.35950 38667 ft 492 kts 68°
2026-04-23 11:19 60.70441 67.46617 38665 ft 492 kts 68°
2026-04-23 11:20 60.73099 67.59460 38672 ft 492 kts 69°
2026-04-23 11:20 60.75658 67.72493 38669 ft 492 kts 69°
2026-04-23 11:21 60.78221 67.85410 38664 ft 492 kts 69°
2026-04-23 11:21 60.80804 67.98412 38665 ft 492 kts 69°
2026-04-23 11:22 60.83354 68.11356 38664 ft 492 kts 69°
2026-04-23 11:22 60.85930 68.24464 38663 ft 493 kts 69°
2026-04-23 11:23 60.88492 68.37432 38664 ft 493 kts 69°
2026-04-23 11:23 60.91109 68.50469 38668 ft 493 kts 69°
2026-04-23 11:24 60.93688 68.63456 38664 ft 492 kts 69°
2026-04-23 11:24 60.96271 68.76581 38667 ft 493 kts 69°
2026-04-23 11:25 60.98820 68.89625 38668 ft 493 kts 69°
2026-04-23 11:25 61.01359 69.02684 38664 ft 492 kts 69°
2026-04-23 11:26 61.03685 69.15954 38695 ft 491 kts 77°
2026-04-23 11:26 61.05227 69.29732 38655 ft 491 kts 79°
2026-04-23 11:27 61.06690 69.43400 38668 ft 491 kts 79°
2026-04-23 11:27 61.08196 69.57235 38660 ft 492 kts 79°
2026-04-23 11:28 61.09670 69.70902 38639 ft 479 kts 79°
2026-04-23 11:28 61.10382 69.77537 38591 ft 461 kts 79°
2026-04-23 11:28 61.11053 69.83827 38555 ft 444 kts 79°
2026-04-23 11:28 61.11702 69.89939 38667 ft 425 kts 79°
2026-04-23 11:29 61.12329 69.95888 38645 ft 424 kts 79°
2026-04-23 11:29 61.13566 70.07777 38677 ft 426 kts 80°
2026-04-23 11:30 61.14749 70.19879 38692 ft 429 kts 81°
2026-04-23 11:30 61.15938 70.32098 37811 ft 442 kts 81°
2026-04-23 11:30 61.16545 70.38411 36114 ft 459 kts 81°
2026-04-23 11:31 61.17180 70.45010 34396 ft 471 kts 81°
2026-04-23 11:31 61.17829 70.51752 32612 ft 480 kts 82°
2026-04-23 11:31 61.18475 70.58522 30782 ft 487 kts 81°
2026-04-23 11:31 61.19132 70.65472 29247 ft 486 kts 81°
2026-04-23 11:32 61.19765 70.72137 28814 ft 456 kts 81°
2026-04-23 11:32 61.20357 70.78408 28218 ft 436 kts 82°
2026-04-23 11:32 61.20924 70.84464 27671 ft 418 kts 82°
2026-04-23 11:32 61.21470 70.90352 27195 ft 415 kts 82°
2026-04-23 11:33 61.22006 70.96253 26663 ft 416 kts 83°
2026-04-23 11:33 61.22492 71.02104 26130 ft 415 kts 83°
2026-04-23 11:33 61.22973 71.08033 25564 ft 412 kts 84°
2026-04-23 11:33 61.23452 71.13938 25014 ft 409 kts 84°
2026-04-23 11:34 61.23923 71.19695 24385 ft 404 kts 84°
2026-04-23 11:34 61.24394 71.25474 23011 ft 408 kts 84°
2026-04-23 11:34 61.24863 71.31256 21609 ft 411 kts 84°
2026-04-23 11:34 61.25341 71.37186 20100 ft 414 kts 84°
2026-04-23 11:35 61.25818 71.43110 18521 ft 416 kts 84°
2026-04-23 11:35 61.26291 71.49055 16834 ft 418 kts 83°
2026-04-23 11:35 61.26768 71.55037 15068 ft 420 kts 83°
2026-04-23 11:35 61.27224 71.60778 14767 ft 387 kts 83°
2026-04-23 11:36 61.27651 71.66018 14751 ft 350 kts 84°
2026-04-23 11:36 61.28027 71.70807 14515 ft 324 kts 85°
2026-04-23 11:36 61.28368 71.75354 14123 ft 313 kts 85°
2026-04-23 11:36 61.28746 71.79742 13598 ft 303 kts 82°
2026-04-23 11:37 61.29146 71.83954 13073 ft 298 kts 82°
2026-04-23 11:37 61.29563 71.88194 12604 ft 300 kts 81°
2026-04-23 11:37 61.29984 71.92466 12186 ft 302 kts 81°
2026-04-23 11:37 61.30388 71.96740 11684 ft 303 kts 82°
2026-04-23 11:38 61.30779 72.01024 10980 ft 301 kts 82°
2026-04-23 11:38 61.31178 72.05332 10268 ft 300 kts 81°
2026-04-23 11:38 61.31561 72.09450 9794 ft 289 kts 82°
2026-04-23 11:38 61.31955 72.13545 9173 ft 285 kts 81°
2026-04-23 11:39 61.32361 72.17547 8509 ft 283 kts 80°
2026-04-23 11:39 61.32768 72.21546 7866 ft 281 kts 80°
2026-04-23 11:39 61.33170 72.25515 7198 ft 278 kts 80°
2026-04-23 11:39 61.33561 72.29443 6563 ft 275 kts 80°
2026-04-23 11:40 61.33951 72.33317 5942 ft 271 kts 80°
2026-04-23 11:40 61.34330 72.37106 5346 ft 268 kts 80°
2026-04-23 11:40 61.34703 72.40881 4769 ft 263 kts 80°
2026-04-23 11:40 61.35075 72.44613 4161 ft 261 kts 80°
2026-04-23 11:41 61.35438 72.48327 3771 ft 261 kts 81°
2026-04-23 11:41 61.35793 72.52013 3473 ft 258 kts 81°
2026-04-23 11:41 61.36141 72.55610 3255 ft 252 kts 81°
2026-04-23 11:41 61.36497 72.59222 3644 ft 255 kts 80°
2026-04-23 11:42 61.36858 72.62875 4159 ft 259 kts 81°
2026-04-23 11:42 61.37218 72.66582 4652 ft 261 kts 81°
2026-04-23 11:42 61.37584 72.70387 4405 ft 276 kts 80°
2026-04-23 11:42 61.37960 72.74238 4234 ft 263 kts 80°
2026-04-23 11:43 61.38318 72.77937 4174 ft 258 kts 81°
2026-04-23 11:43 61.38666 72.81591 4135 ft 258 kts 81°
2026-04-23 11:43 61.39017 72.85282 4081 ft 259 kts 81°
2026-04-23 11:43 61.39364 72.88983 3985 ft 260 kts 81°
2026-04-23 11:44 61.39712 72.92680 3883 ft 259 kts 81°
2026-04-23 11:44 61.40057 72.96314 3794 ft 258 kts 81°
2026-04-23 11:44 61.40412 73.00006 3708 ft 257 kts 81°
2026-04-23 11:44 61.40756 73.03662 3629 ft 257 kts 81°
2026-04-23 11:45 61.41097 73.07322 3537 ft 256 kts 81°
2026-04-23 11:45 61.41438 73.10940 3446 ft 255 kts 81°
2026-04-23 11:45 61.41777 73.14587 3357 ft 254 kts 81°
2026-04-23 11:45 61.42114 73.18219 3267 ft 254 kts 81°
2026-04-23 11:46 61.42452 73.21835 3182 ft 253 kts 81°
2026-04-23 11:46 61.42786 73.25457 3092 ft 253 kts 81°
2026-04-23 11:46 61.43115 73.29059 2997 ft 251 kts 81°
2026-04-23 11:46 61.43442 73.32601 2914 ft 251 kts 81°
2026-04-23 11:47 61.43771 73.36195 2827 ft 250 kts 81°
2026-04-23 11:47 61.44096 73.39763 2739 ft 249 kts 81°
2026-04-23 11:47 61.44416 73.43287 2639 ft 249 kts 81°
2026-04-23 11:47 61.44739 73.46844 2560 ft 247 kts 81°
2026-04-23 11:48 61.45055 73.50357 2476 ft 248 kts 81°
2026-04-23 11:48 61.45382 73.53893 2377 ft 247 kts 81°
2026-04-23 11:48 61.45699 73.57416 2311 ft 244 kts 81°
2026-04-23 11:48 61.46010 73.60905 2266 ft 246 kts 81°
2026-04-23 11:49 61.46203 73.64463 2134 ft 242 kts 97°
2026-04-23 11:49 61.45675 73.67511 2114 ft 217 kts 129°
2026-04-23 11:49 61.44692 73.69798 2121 ft 209 kts 134°
2026-04-23 11:49 61.43676 73.72028 2196 ft 211 kts 134°
2026-04-23 11:50 61.42667 73.74241 2197 ft 212 kts 137°
2026-04-23 11:50 61.41448 73.75896 2210 ft 209 kts 161°
2026-04-23 11:50 61.40024 73.76177 2265 ft 206 kts 190°
2026-04-23 11:50 61.38749 73.75055 2296 ft 193 kts 215°
2026-04-23 11:51 61.37864 73.73056 2193 ft 182 kts 232°
2026-04-23 11:51 61.37128 73.70941 2188 ft 181 kts 232°
2026-04-23 11:51 61.36368 73.68832 2168 ft 178 kts 232°
2026-04-23 11:51 61.35630 73.66777 2161 ft 176 kts 232°
2026-04-23 11:52 61.34914 73.64720 2164 ft 177 kts 238°
2026-04-23 11:52 61.34521 73.62384 2230 ft 164 kts 259°
2026-04-23 11:52 61.34443 73.60111 2107 ft 155 kts 268°
2026-04-23 11:52 61.34443 73.57992 2094 ft 142 kts 267°
2026-04-23 11:53 61.34423 73.55921 2080 ft 143 kts 267°
2026-04-23 11:53 61.34422 73.53792 1840 ft 154 kts 268°
2026-04-23 11:53 61.34413 73.51574 1440 ft 155 kts 268°
2026-04-23 11:53 61.34409 73.49290 968 ft 156 kts 268°
2026-04-23 11:54 61.34396 73.47183 847 ft 145 kts 267°
2026-04-23 11:54 61.34408 73.45144 646 ft 142 kts 271°
2026-04-23 11:54 61.34398 73.43093 532 ft 146 kts 267°
2026-04-23 11:54 61.34376 73.40817 1133 ft 164 kts 269°
2026-04-23 11:55 61.34397 73.38207 1577 ft 203 kts 270°
2026-04-23 11:55 61.34406 73.34969 1726 ft 235 kts 269°
2026-04-23 11:55 61.34407 73.31522 1606 ft 242 kts 269°
2026-04-23 11:55 61.34406 73.28015 876 ft 244 kts 269°
2026-04-23 11:56 61.34411 73.24817 1508 ft 211 kts 269°
2026-04-23 11:56 61.34421 73.21864 2345 ft 197 kts 269°
2026-04-23 11:56 61.34437 73.19052 2910 ft 199 kts 268°
2026-04-23 11:56 61.34445 73.16046 2997 ft 222 kts 268°
2026-04-23 11:57 61.34535 73.12679 3018 ft 240 kts 281°
2026-04-23 11:57 61.35360 73.09584 3014 ft 252 kts 313°
2026-04-23 11:57 61.36888 73.07789 2996 ft 259 kts 345°
2026-04-23 11:57 61.38667 73.07868 2989 ft 264 kts 17°
2026-04-23 11:58 61.40228 73.09803 3013 ft 261 kts 42°
2026-04-23 11:58 61.41581 73.12338 3007 ft 261 kts 42°
2026-04-23 11:58 61.42946 73.14851 3006 ft 261 kts 42°
2026-04-23 11:58 61.44294 73.17324 3004 ft 258 kts 42°
2026-04-23 11:59 61.45654 73.19818 3001 ft 260 kts 42°
2026-04-23 11:59 61.47019 73.22325 3003 ft 260 kts 42°
2026-04-23 11:59 61.48290 73.25009 3005 ft 258 kts 58°
2026-04-23 11:59 61.48782 73.28475 3030 ft 253 kts 94°
2026-04-23 12:00 61.48230 73.31881 3074 ft 249 kts 129°
2026-04-23 12:00 61.47041 73.34522 3107 ft 250 kts 136°
2026-04-23 12:00 61.45872 73.37246 2977 ft 249 kts 129°
2026-04-23 12:00 61.44902 73.40222 2999 ft 248 kts 123°
2026-04-23 12:01 61.44045 73.43327 2985 ft 249 kts 121°
2026-04-23 12:01 61.43223 73.46505 3002 ft 249 kts 120°
2026-04-23 12:01 61.42404 73.49719 3000 ft 249 kts 120°
2026-04-23 12:01 61.41584 73.52925 2996 ft 249 kts 120°
2026-04-23 12:02 61.40757 73.56114 2986 ft 250 kts 120°
2026-04-23 12:02 61.39928 73.59299 2988 ft 249 kts 120°
2026-04-23 12:02 61.39111 73.62350 2960 ft 231 kts 125°
2026-04-23 12:02 61.38005 73.64551 2890 ft 214 kts 153°
2026-04-23 12:03 61.36551 73.65216 2394 ft 215 kts 189°
2026-04-23 12:03 61.35224 73.64026 2161 ft 206 kts 220°
2026-04-23 12:03 61.34407 73.61632 1879 ft 206 kts 251°
2026-04-23 12:03 61.34312 73.58688 1689 ft 205 kts 275°
2026-04-23 12:04 61.34501 73.55767 1430 ft 200 kts 275°
2026-04-23 12:04 61.34569 73.52964 1165 ft 189 kts 268°
2026-04-23 12:04 61.34487 73.50322 929 ft 175 kts 263°
2026-04-23 12:04 61.34400 73.47872 709 ft 162 kts 268°
2026-04-23 12:05 61.34405 73.45668 565 ft 140 kts 269°
2026-04-23 12:05 61.34398 73.43665 298 ft 138 kts 268°
2026-04-23 12:05 61.34392 73.42321 222 ft 141 kts 269°
2026-04-23 12:05 61.34388 73.40467 201 ft 107 kts 269°
2026-04-23 12:06 61.34384 73.39091 196 ft 27 kts 270°
2026-04-23 12:06 61.34379 73.38952 194 ft 9 kts 246°
2026-04-23 12:06 61.34305 73.38902 202 ft 3 kts 180°
2026-04-23 12:07 61.34245 73.38902 212 ft 11 kts 180°
2026-04-23 12:07 61.34178 73.38945 216 ft 11 kts 126°
2026-04-23 12:07 61.34176 73.39104 206 ft 12 kts 90°
2026-04-23 12:07 61.34176 73.39297 215 ft 14 kts 90°
2026-04-23 12:08 61.34177 73.39507 209 ft 15 kts 89°
2026-04-23 12:08 61.34178 73.39742 211 ft 17 kts 89°
2026-04-23 12:08 61.34178 73.39997 206 ft 18 kts 90°
2026-04-23 12:08 61.34180 73.40261 206 ft 18 kts 89°
2026-04-23 12:09 61.34181 73.40537 206 ft 20 kts 89°
2026-04-23 12:09 61.34182 73.40830 206 ft 21 kts 90°
2026-04-23 12:09 61.34183 73.41073 211 ft 8 kts 89°
2026-04-23 12:09 61.34163 73.41133 210 ft 5 kts 154°
2026-04-23 12:10 61.34144 73.41117 206 ft 3 kts 230°
2026-04-23 12:10 61.34140 73.41072 206 ft 3 kts 267°
2026-04-23 12:10 61.34140 73.41054 206 ft 0 kts 269°
2026-04-23 12:49 61.34140 73.41055 206 ft 0 kts 269°